Regional Weather Roundup
Issued by NWS Wilmington, NC

Home | Current Version | Previous Version | Text Only | Print | Product List | Glossary On
Versions: 1 2 3 4 5 6 7 8 9 10 11 12 13 14 15 16 17 18 19 20 21 22 23 24 25 26 27 28 29 30 31 32 33 34 35 36 37 38 39 40 41 42 43 44 45 46 47 48 49 50
000
ASUS42 KILM 211213
RWRILM
RWRILM
REGIONAL HOURLY WEATHER ROUNDUP
NATIONAL WEATHER SERVICE WILMINGTON NC
800 AM EDT FRI JUL 21 2017

NOTE: "FAIR" INDICATES FEW OR NO CLOUDS BELOW 12,000 FEET WITH NO
SIGNIFICANT WEATHER AND/OR OBSTRUCTIONS TO VISIBILITY.

...............WFO WILMINGTON COUNTY WARNING AREA...............

......COASTAL NC AND SC COUNTIES......

CITY           SKY/WX    TMP DP  RH WIND       PRES   REMARKS
WILMINGTON     SUNNY     79  75  87 W8        30.03R
N MYRTLE BEACH SUNNY     79  76  90 SW8       30.04R
MYRTLE BEACH   MOSUNNY   77  75  94 SW6       30.04R HAZE

......INLAND NC AND SC COUNTIES.......

CITY           SKY/WX    TMP DP  RH WIND       PRES   REMARKS
LUMBERTON      SUNNY     76  74  93 SW5       30.03R
ELIZABETHTOWN  NOT AVBL
WHITEVILLE     SUNNY     77  73  87 CALM      30.03R
FLORENCE       SUNNY     76  73  91 SW6       30.04R
DARLINGTON     PTSUNNY   75  73  93 SW7       30.04R
KINGSTREE      FAIR      75  72  88 S3        30.04R
HARTSVILLE     FAIR      73  72  94 W5        30.04R
BENNETTSVILLE  FAIR      77  77 100 S3        30.03R
CONWAY         FAIR      75  72  88 SW3       30.04R FOG
GEORGETOWN     FAIR      75  73  94 SW3       30.05R
MARION         FAIR      73  72  94 SW5       30.04R

....................REST OF NORTH CAROLINA......................

.........EASTERN NC.........

CITY           SKY/WX    TMP DP  RH WIND       PRES   REMARKS
CAPE HATTERAS  SUNNY     80  75  84 SW9       30.01R
JACKSONVILLE   SUNNY     78  75  90 SW7       30.03R
MOREHEAD CITY  SUNNY     82  78  88 W10       30.02R HX  91
KENANSVILLE    SUNNY     77  73  88 SW5       30.02R
NEW BERN       MOSUNNY   78  76  93 SW6       30.03R
ELIZABETH CITY SUNNY     79  77  94 SW7       29.98R

.........CENTRAL NC.........

CITY           SKY/WX    TMP DP  RH WIND       PRES   REMARKS
RALEIGH DURHAM PTSUNNY   79  74  84 SW6       30.01R
ROCKY MOUNT    SUNNY     78  76  93 SW6       29.99R
ROANOKE RAPIDS NOT AVBL
FAYETTEVILLE   SUNNY     83  75  77 SW9       30.01R HX  90
HOFFMAN        SUNNY     76  75  94 SW3       30.03R

.........WESTERN NC.........

CITY           SKY/WX    TMP DP  RH WIND       PRES   REMARKS
CHARLOTTE      MOSUNNY   79  72  79 CALM      30.05R
GREENSBORO     PTSUNNY   77  71  82 NW5       30.04R
HICKORY        NOT AVBL
BOONE          NOT AVBL
ASHEVILLE      NOT AVBL

.....................REST OF SOUTH CAROLINA.....................

.........EASTERN SC.........

CITY           SKY/WX    TMP DP  RH WIND       PRES   REMARKS
CHARLESTON     MOSUNNY   77  70  79 SW6       30.05R
BEAUFORT MCAS  SUNNY     77  73  87 CALM      30.05R
HILTON HEAD    NOT AVBL

.........CENTRAL SC.........

CITY           SKY/WX    TMP DP  RH WIND       PRES   REMARKS
COLUMBIA       SUNNY     76  71  85 CALM      30.03R
ORANGEBURG     SUNNY     74  71  91 S3        30.04R
SUMTER SHAW    SUNNY     75  71  88 SW5       30.02R

.........WESTERN SC.........

CITY           SKY/WX    TMP DP  RH WIND       PRES   REMARKS
GREENVILLE     NOT AVBL
ROCK HILL      SUNNY     75  71  87 CALM      30.05R
ANDERSON       SUNNY     78  74  87 NW5       30.06R
CLEMSON        NOT AVBL
GREENWOOD      SUNNY     75  71  87 CALM      30.06R


...................COASTAL AND OFFSHORE REPORTS..................

................LOCAL PIERS AND NC RESERVE................


STATION/POSITION TIME  SKY/WX   TEMP    WIND        PRES    VSBY
                                AIR SEA DIR/SP/G
                 (UTC)          (F)     (DEG/KT/KT) (MB)    (MI)
JOHNY MRCER PIER 1148            79 80  240/  8/  9 1015.9R
NC RESRV MASNBRO NOT AVBL
OCEAN CREST PIER NOT AVBL
SPRINGMAID  PIER 1142                               1016.4R


................COASTAL AND OFFSHORE BUOYS................


STATION/POSITION TIME  SKY/WX   TEMP    WIND        PRES    VSBY
                                AIR SEA DIR/SP/G
                 (UTC)          (F)     (DEG/KT/KT) (MB)    (MI)
DIMNDSHOAL 41025 1150            82 84  260/ 10/ 12 1015.9R
WVE H/P(F/S)=  3/ 4 SWL H/P/D(F/S/D)=  2/140/ 8

CAPE LOOKOUT     1200            81     250/  9/ 13 1016.3R
ONSLOW BAY 41036 NOT AVBL
ONSLOW BAY 41064 1108            80 81  260/ 10/ 12 1016.5
ONSLOW BAY 41159 1143               81                N/A
WVE H/P(F/S)=  3/ 4 SWL H/P/D(F/S/D)=  2/110/13

MASNBO INL 41110 1159               81                N/A
WVE H/P(F/S)=  2/ 8

WILM HARBR 41108 1200               81                N/A
WVE H/P(F/S)=  2/ 7

27SE WRITB 41037 1108            81 81  240/ 12/ 16 1016.3R
FRYING PAN 41013 1200            82 83  270/ 12/ 14 1016.8
SUNST NRSH 41024 1108            78 80  260/  6/ 10 1016.4R
CAPRS NRSH 41029 1108            78 83  270/  8/ 10 1016.7R
EDISTO     41004 1200            82 83  230/ 10/ 12 1017.0


..........OFFSHORE BUOYS BEYOND 100 NM OFFSHORE...........
.....IN A TRIANGLE---HAT TO BERMUDA TO BAHAMAS TO HAT.....


STATION/POSITION TIME  SKY/WX   TEMP    WIND        PRES    VSBY
                                AIR SEA DIR/SP/G
                 (UTC)          (F)     (DEG/KT/KT) (MB)    (MI)
150E HAT   41001 1200            82 82  220/ 10/ 12 1017.5
W BERMUDA  41048 1200            83 83  230/ 12/ 14 1019.6
ATLANTIC S 41049 1150            81 83  110/  8/ 10 1022.9R
WVE H/P(F/S)=  5/ 9 SWL H/P/D(F/S/D)=  5/100/ 9

E BAHAMAS  41046 1200            82 83   90/ 14/ 16 1020.3
NE BAHAMAS 41047 1200            83 84  140/  8/ 10 1021.0
120E CANVRL41010 1200            81 85  210/ 10/ 12 1017.9

END



USA.gov is the U.S. government's official web portal to all federal, state and local government web resources and services.